EDT,Max TemperatureF,Mean TemperatureF,Min TemperatureF,Max Dew PointF,MeanDew PointF,Min DewpointF,Max Humidity, Mean Humidity, Min Humidity, Max Sea Level PressureIn, Mean Sea Level PressureIn, Min Sea Level PressureIn, Max VisibilityMiles, Mean VisibilityMiles, Min VisibilityMiles, Max Wind SpeedMPH, Mean Wind SpeedMPH, Max Gust SpeedMPH,PrecipitationIn, CloudCover, Events, WindDirDegrees
2011-10-1,54,51,47,47,45,41,93,80,66,29.87,29.83,29.76,10,8,2,16,10,22,0.15,8,Rain,289
2011-10-2,47,44,40,43,40,37,92,87,82,29.98,29.90,29.85,10,9,6,18,8,24,0.52,8,Rain,293
2011-10-3,51,47,42,47,43,40,96,85,74,30.13,30.06,29.96,10,10,5,8,2,10,0.04,8,Rain,195
2011-10-4,66,55,44,52,46,43,100,82,63,30.20,30.13,30.08,10,4,0,20,5,25,0.00,6,Fog,330
2011-10-5,73,61,49,50,48,46,89,64,38,30.32,30.23,30.19,10,10,10,18,8,22,0.00,0,,310
2011-10-6,67,56,45,46,41,37,71,56,40,30.45,30.39,30.34,10,10,10,12,4,15,0.00,0,,32
2011-10-7,72,59,46,53,48,43,93,71,49,30.51,30.45,30.39,10,10,8,6,1,12,0.00,0,,92
2011-10-8,74,61,48,52,48,45,86,61,35,30.58,30.52,30.47,10,10,5,7,2,10,0.00,0,,121
2011-10-9,76,62,48,55,50,46,93,67,41,30.53,30.47,30.39,10,7,0,6,2,8,0.00,0,Fog,116
2011-10-10,76,62,48,60,53,46,100,75,50,30.38,30.32,30.23,10,5,0,7,1,8,0.00,2,Fog,131
2011-10-11,70,61,51,59,55,49,96,79,61,30.22,30.17,30.11,10,5,1,9,3,12,0.00,2,Rain,37
2011-10-12,66,62,57,57,55,51,93,80,67,30.11,29.96,29.86,10,6,2,17,11,22,0.25,8,Rain,41
2011-10-13,65,61,56,63,59,55,100,94,87,29.85,29.68,29.54,10,5,0,12,7,15,0.04,8,Fog-Rain-Thunderstorm,11
2011-10-14,67,64,61,63,55,39,97,69,40,29.68,29.51,29.44,10,8,2,24,11,36,0.19,5,Rain,201
2011-10-15,66,57,47,42,36,29,80,54,28,29.91,29.75,29.69,10,9,3,24,11,35,T,1,Rain,233
2011-10-16,69,58,47,46,39,30,66,51,35,30.01,29.88,29.68,10,10,10,21,9,25,0.00,2,,205
2011-10-17,69,60,51,49,36,26,71,46,21,29.89,29.83,29.73,10,10,10,22,12,26,T,2,,264
2011-10-18,71,60,49,50,40,30,68,47,26,29.91,29.84,29.78,10,10,10,14,4,17,0.00,0,,120
2011-10-19,65,60,54,61,58,48,93,79,64,29.75,29.42,29.24,10,7,1,18,9,24,0.01,8,Rain,41
2011-10-20,57,54,51,61,45,34,86,65,43,29.80,29.45,29.23,10,9,2,21,10,30,0.03,7,Rain,236
2011-10-21,53,50,47,40,38,37,71,65,59,30.14,30.01,29.83,10,10,10,17,10,26,T,8,Rain,255
2011-10-22,57,53,48,41,39,37,77,62,47,30.17,30.14,30.10,10,10,10,10,4,14,0.00,5,,218
2011-10-23,60,49,38,43,39,35,92,67,42,30.20,30.15,30.11,10,9,4,8,1,13,0.00,0,,108
2011-10-24,61,54,47,52,46,44,86,72,57,30.13,30.08,30.02,10,9,4,10,3,13,T,4,Rain,198
2011-10-25,66,56,45,43,39,36,77,56,34,30.23,30.14,30.05,10,10,10,16,7,21,0.00,0,,272
2011-10-26,65,57,49,53,47,40,72,64,55,30.04,29.90,29.78,10,10,10,16,6,23,T,3,,191
2011-10-27,62,56,50,56,48,31,93,83,72,30.09,29.74,29.60,10,9,3,15,6,20,0.05,8,Rain,331
2011-10-28,48,41,34,34,30,26,82,64,45,30.28,30.22,30.10,10,10,9,13,5,15,0.00,4,Rain,48
2011-10-29,38,36,33,36,32,28,96,91,85,30.20,30.06,29.98,10,4,0,14,9,16,0.42,7,Fog-Rain-Snow,355
2011-10-30,47,36,25,30,28,25,92,69,45,30.38,30.29,30.08,10,10,10,9,2,12,0.31,0,,247
2011-10-31,50,39,28,33,29,25,92,67,42,30.39,30.34,30.28,10,10,8,17,5,22,0.00,2,,103